This demonstration page uses our WeatherBlox Daily Observations layout. Learn more.

Left ArrowRight Arrow

Hourly Observations for July 25, 2016

Temp ( °F °C ) Dew Point ( °F °C ) Humidity (%) Winds ( mph kmh ) Pressure ( in mb ) Visibility ( mi km ) Precip ( " mm )
12:58 am 00:58 Clear 72 22 65 18.4 80 80 N 6 9 30.05 1018 10 16 0.00 0.00
1:58 am 01:58 Clear 69 20.6 65 18.5 88 88 N 3 6 30.04 1017 10 16 0.00 0.00
2:58 am 02:58 Clear 67 19.5 63 17.2 87 87 W 1 2 30.03 1017 10 16 0.00 0.00
3:58 am 03:58 Partly Cloudy 67 19.7 63 17.1 85 85 NNE 5 7 30.05 1018 10 16 0.00 0.00
4:58 am 04:58 Partly Cloudy 68 19.9 64 17.7 87 87 Calm 30.07 1018 10 16 0.00 0.00
5:58 am 05:58 Mostly Clear 64 17.5 63 17.4 99 99 WNW 1 2 30.08 1019 10 16 0.00 0.00
6:58 am 06:58 Mostly Sunny 65 18.4 63 17.4 94 94 ESE 2 4 30.09 1019 10 16 0.00 0.00
7:58 am 07:58 Mostly Sunny 71 21.5 65 18.2 82 82 E 3 6 30.10 1019 10 16 0.00 0.00
8:47 am 08:47 Partly Cloudy with Light Rain 73 23 66 19 78 78 ENE 5 7 30.09 1019 10 16 0.00 0.00
8:57 am 08:57 Mostly Sunny 75 24 66 19 74 74 VRB 5 7 30.09 1019 10 16 0.00 0.00
8:58 am 08:58 Mostly Sunny 75 24 66 19 74 74 VRB 6 9 30.10 1019 10 16 0.00 0.03
8:59 am 08:59 Partly Cloudy with Light Rain 75 24 66 19 74 74 E 7 11 30.09 1019 10 16 0.00 0.00
9:01 am 09:01 Sunny 75 24 66 19 74 74 E 6 9 30.09 1019 10 16 0.00 0.00
9:58 am 09:58 Partly Cloudy 75 24 67 19.5 76 76 S 5 7 30.13 1020 10 16 0.00 0.00
10:58 am 10:58 Partly Cloudy 78 25.7 66 18.8 66 66 SSE 7 11 30.12 1020 10 16 0.00 0.00
11:58 am 11:58 Mostly Sunny 81 27.2 66 18.9 61 61 SSE 8 13 30.13 1020 10 16 0.00 0.00
12:58 pm 12:58 Mostly Sunny 83 28.2 65 18.3 55 55 VRB 1 2 30.11 1020 10 16 0.00 0.00
1:58 pm 13:58 Sunny 84 28.7 65 18.6 54 54 VRB 3 6 30.10 1019 10 16 0.00 0.00
2:58 pm 14:58 Sunny 86 29.9 66 18.7 51 51 VRB 1 2 30.07 1018 10 16 0.00 0.00
3:59 pm 15:59 Sunny 87 30.3 64 17.6 47 47 N 6 9 30.05 1018 8 13 0.00 0.00
4:58 pm 16:58 Sunny 88 30.9 64 17.7 45 45 NNE 7 11 30.04 1017 10 16 0.00 0.00
5:58 pm 17:58 Sunny 87 30.3 65 18.5 49 49 ENE 8 13 30.03 1017 10 16 0.00 0.00
6:58 pm 18:58 Sunny 85 29.4 67 19.2 54 54 ENE 7 11 30.02 1017 10 16 0.00 0.00
7:58 pm 19:58 Sunny 82 27.7 69 20.3 64 64 E 6 9 30.04 1017 10 16 0.00 0.00
8:58 pm 20:58 Clear 76 24.3 69 20.6 80 80 E 3 6 30.04 1017 10 16 0.00 0.00
9:58 pm 21:58 Clear 71 21.5 68 20.1 92 92 E 5 7 30.06 1018 10 16 0.00 0.00
10:58 pm 22:58 Clear 69 20.8 68 20.2 96 96 E 3 6 30.08 1019 10 16 0.00 0.00
11:58 pm 23:58 Clear 67 19.7 67 19.7 100 100 E 2 4 30.07 1018 10 16 0.00 0.00

Powered by AerisWeather